state,date,count,respondents,proportion,percentage,type,lower,upper
VIC,2020-03-27,142,267,0.5318352059925093,53.20442643974319,Nowcast,47.24276382010585,59.22911755612063
VIC,2020-04-03,177,263,0.6730038022813688,67.23492993320801,Nowcast,61.36769020247823,72.77471592139757
VIC,2020-04-10,170,259,0.6563706563706564,65.57034997044734,Nowcast,59.62160545026425,71.18930449044004
VIC,2020-04-17,181,269,0.6728624535315985,67.21355482900928,Nowcast,61.37583043317033,72.51565888006508
VIC,2020-04-22,127,228,0.5570175438596491,55.67787033392365,Nowcast,49.29889154470507,62.00151875951487
VIC,2020-05-01,109,205,0.5317073170731708,53.163789594177715,Nowcast,46.1913349928834,59.92505500011895
VIC,2020-05-07,113,203,0.5566502463054187,55.618913696732555,Nowcast,48.62485938681231,62.37621718673151
VIC,2020-05-14,227,417,0.5443645083932853,54.418445992677235,Nowcast,49.52287294985152,59.13828275039184
VIC,2020-05-22,206,414,0.4975845410628019,49.792381199896255,Nowcast,44.967889612660535,54.582569012526235
VIC,2020-05-29,185,404,0.45792079207920794,45.804173241223374,Nowcast,40.904075818259095,50.707078661374226
VIC,2020-06-06,184,412,0.44660194174757284,44.69007669148241,Nowcast,39.87417846106739,49.53735343999271
VIC,2020-06-12,175,404,0.43316831683168316,43.28105066373896,Nowcast,38.492165986516234,48.101390187916806
VIC,2020-06-19,168,426,0.39436619718309857,39.455512070894564,Nowcast,34.93160209971184,44.15548888312822
VIC,2020-06-26,162,401,0.40399002493765584,40.4221899436381,Nowcast,35.80750865186732,45.28318569617599
VIC,2020-07-09,176,403,0.43672456575682383,43.638927489246285,Nowcast,38.894394270962174,48.48674135800471
VIC,2020-07-16,192,397,0.4836272040302267,48.37243425890493,Nowcast,43.4595259454556,53.27125430886047
VIC,2020-07-23,221,397,0.5566750629722922,55.67460924174402,Nowcast,50.658418176138866,60.46792777174136
VIC,2020-07-30,229,400,0.5725,57.24976429147311,Nowcast,52.3513261994378,61.99487905493734
VIC,2020-08-07,283,453,0.6247240618101545,62.4264335949727,Nowcast,57.90690402502161,66.77344452934187
VIC,2020-08-12,255,411,0.6204379562043796,62.03992488176375,Nowcast,57.24547437523066,66.66737989023635
VIC,2020-08-19,254,419,0.6062052505966588,60.583524415642074,Nowcast,55.88257324526521,65.20198779801596
VIC,2020-08-26,241,415,0.5807228915662651,58.075371477491224,Nowcast,53.21565036738244,62.816961765532184
VIC,2020-09-02,268,425,0.6305882352941177,63.02004858201611,Nowcast,58.41941540887162,67.48706848669983
VIC,2020-09-11,265,415,0.6385542168674698,63.8306031292196,Nowcast,59.02149080486482,68.37677926618758
VIC,2020-09-16,245,414,0.5917874396135265,59.18003055775466,Nowcast,54.413058757834435,63.78520434140026
VIC,2020-09-21,233,397,0.5869017632241813,58.63933898277113,Nowcast,53.79578290675467,63.37994325598291
VIC,2020-09-30,222,411,0.5401459854014599,54.013274159221424,Nowcast,49.1246270195428,58.77349911837519
VIC,2020-10-07,238,407,0.5847665847665847,58.43559026381274,Nowcast,53.635006560194945,63.11555500992084
VIC,2020-10-15,202,392,0.5153061224489796,51.6059668590059,Nowcast,46.73351684446509,56.431329908225095
VIC,2020-10-21,208,407,0.5110565110565111,51.07168061485314,Nowcast,46.2515904629156,55.958426580402175
VIC,2020-10-28,197,407,0.48402948402948404,48.42698994683033,Nowcast,43.65962296427382,53.18860169172369
VIC,2020-11-05,180,379,0.47493403693931396,47.54117738183044,Nowcast,42.61855134103981,52.5218281598771
VIC,2020-11-12,203,404,0.5024752475247525,50.28557187100509,Nowcast,45.430772548904805,55.04891176826291
VIC,2020-11-19,214,390,0.5487179487179488,54.829540801318856,Nowcast,49.894166481506446,59.67136886708474
VIC,2020-11-25,179,408,0.4387254901960784,43.9186766230298,Nowcast,39.245768763125575,48.7097158484586
VIC,2020-12-03,181,403,0.4491315136476427,44.929366171257655,Nowcast,40.121141206520946,49.93309157482087
VIC,2020-12-10,176,406,0.43349753694581283,43.384243543928584,Nowcast,38.597867431922324,48.25650306826879
VIC,2020-12-17,183,409,0.4474327628361858,44.782928817261826,Nowcast,39.97424498823015,49.577930611777
VIC,2021-01-05,178,407,0.43734643734643736,43.784232875724996,Nowcast,39.066476795585395,48.76320497883873
VIC,2021-01-13,152,396,0.3838383838383838,38.415795590796,Nowcast,33.809190877402166,43.394562907567355
VIC,2021-01-21,141,412,0.3422330097087379,34.27771482838394,Nowcast,29.893322592217302,38.81389871893728
VIC,2021-01-26,146,403,0.36228287841191065,36.29213572475188,Nowcast,31.58946896829095,41.07038071771407
VIC,2021-02-03,135,390,0.34615384615384615,34.63366821856123,Nowcast,30.09375847382771,39.37542541923843
VIC,2021-02-10,148,417,0.354916067146283,35.549725089708886,Nowcast,31.129844240446925,40.22347708531163
VIC,2021-02-17,170,410,0.4146341463414634,41.48464888838534,Nowcast,36.83702331968742,46.300792880294935
VIC,2021-02-25,136,407,0.33415233415233414,33.46163620745042,Nowcast,28.97006684026896,38.031496988266134
VIC,2021-03-03,144,433,0.3325635103926097,33.296118993418744,Nowcast,28.961411928312824,37.78042523793751
VIC,2021-03-10,124,414,0.2995169082125604,29.998352402594268,Nowcast,25.715815287623613,34.48720233029926
VIC,2021-03-17,145,415,0.3493975903614458,34.969533080745954,Nowcast,30.47368108901065,39.685192241071874
VIC,2021-03-25,130,412,0.3155339805825243,31.56052399912755,Nowcast,27.154769630085273,36.21169538718021
VIC,2021-04-01,114,417,0.2733812949640288,27.389111037839147,Nowcast,23.29224245786161,31.848689818284925
VIC,2021-04-09,115,417,0.27577937649880097,27.664044923186466,Nowcast,23.482723671332717,32.043717269016824
VIC,2021-04-15,98,421,0.2327790973871734,23.373102643190414,Nowcast,19.466807502092518,27.639361074425175
VIC,2021-04-21,105,436,0.2408256880733945,24.135333512989167,Nowcast,20.34173615313947,28.333382416718432
VIC,2021-04-29,113,432,0.26157407407407407,26.168814712309214,Nowcast,22.229233674985913,30.55517079508056
VIC,2021-05-05,105,434,0.24193548387096775,24.226064439304984,Nowcast,20.411819846499963,28.425009132865814
VIC,2021-05-12,98,417,0.23501199040767387,23.55522963830786,Nowcast,19.651200769238,27.835182515000252
VIC,2021-05-20,95,418,0.22727272727272727,22.790151789740506,Nowcast,18.9203939737141,26.981779354596156
VIC,2021-05-26,145,425,0.3411764705882353,34.13056898419729,Nowcast,29.80125361210969,38.73568236991179
VIC,2021-06-02,203,423,0.4799054373522459,48.00350589854833,Nowcast,43.1226191858364,52.84122742614402
VIC,2021-06-09,174,414,0.42028985507246375,42.07075582495594,Nowcast,37.31167006575069,46.90288488736218
VIC,2021-06-16,144,420,0.34285714285714286,34.35713077320245,Nowcast,29.938639879818947,38.92553972580253
VIC,2021-06-23,154,418,0.3684210526315789,36.88615871062672,Nowcast,32.341359824570716,41.58568850235414
VIC,2021-06-30,161,418,0.38516746411483255,38.561852249010265,Nowcast,33.96684183810177,43.28487387589584
VIC,2021-07-06,141,422,0.3341232227488152,33.489955679076665,Nowcast,29.121776901018638,38.052033546192234
VIC,2021-07-13,121,420,0.28809523809523807,28.858641314946997,Nowcast,24.709281992897118,33.38047202827002
VIC,2021-07-21,177,411,0.4306569343065693,43.02285377990389,Nowcast,38.29628867371199,47.83805053840408
VIC,2021-07-28,184,405,0.454320987654321,45.43377666753114,Nowcast,40.56298489360782,50.24363453448992
VIC,2021-08-04,169,408,0.41421568627450983,41.436000442432544,Nowcast,36.79552268328524,46.2329222056549
VIC,2021-08-11,178,424,0.419811320754717,42.00758971249019,Nowcast,37.33605770382463,46.789517010587716
VIC,2021-08-18,190,413,0.4600484261501211,46.01834702351976,Nowcast,41.308902311652886,50.81757337682501
VIC,2021-08-25,201,414,0.4855072463768116,48.53656801922116,Nowcast,43.774443899915596,53.36941724280398
VIC,2021-09-01,203,415,0.4891566265060241,48.92070606028868,Nowcast,44.104524710914376,53.58087376074758
